Hourly Weather Asadabad

Today, 7 August, Friday

Time Temperature Precipitation Wind Pressure Humidity
00:00 +27°C° 0 mm 0 mps 655 mmHg 63%
01:00 +29°C° 0 mm 1 mps 655 mmHg 63%
02:00 +29°C° 0 mm 1 mps 655 mmHg 62%
03:00 +28°C° 0 mm 1 mps 655 mmHg 63%
04:00 +28°C° 0 mm 1 mps 655 mmHg 63%
05:00 +26°C° 0 mm 0 mps 655 mmHg 67%
06:00 +29°C° 0.1 mm 1 mps 656 mmHg 62%
07:00 +30°C° 0.1 mm 1 mps 657 mmHg 58%
08:00 +31°C° 0.1 mm 1 mps 657 mmHg 53%
09:00 +32°C° 0 mm 2 mps 657 mmHg 52%
10:00 +32°C° 0 mm 2 mps 657 mmHg 50%
11:00 +34°C° 0 mm 2 mps 657 mmHg 48%
12:00 +35°C° 0.1 mm 3 mps 657 mmHg 47%
13:00 +35°C° 0.1 mm 3 mps 656 mmHg 46%
14:00 +36°C° 0.1 mm 3 mps 656 mmHg 46%
15:00 +36°C° 0.2 mm 3 mps 656 mmHg 47%
16:00 +35°C° 0.2 mm 3 mps 655 mmHg 48%
17:00 +36°C° 0 mm 3 mps 655 mmHg 45%
18:00 +35°C° 0.1 mm 2 mps 655 mmHg 50%
19:00 +32°C° 0.1 mm 2 mps 655 mmHg 54%
20:00 +31°C° 0.1 mm 1 mps 655 mmHg 59%
21:00 +31°C° 0.2 mm 1 mps 655 mmHg 62%
22:00 +30°C° 0.2 mm 1 mps 655 mmHg 64%
23:00 +30°C° 0.2 mm 1 mps 655 mmHg 67%

Tomorrow, 8 August, Saturday

Time Temperature Precipitation Wind Pressure Humidity
00:00 +29°C° 0.3 mm 1 mps 655 mmHg 69%
01:00 +29°C° 0.3 mm 1 mps 655 mmHg 71%
02:00 +28°C° 0.3 mm 1 mps 655 mmHg 74%
03:00 +28°C° 0.9 mm 1 mps 655 mmHg 75%
04:00 +28°C° 0.9 mm 1 mps 655 mmHg 77%
05:00 +27°C° 0.9 mm 1 mps 654 mmHg 79%
06:00 +28°C° 0.3 mm 1 mps 655 mmHg 75%
07:00 +28°C° 0.3 mm 1 mps 655 mmHg 72%
08:00 +29°C° 0.3 mm 1 mps 655 mmHg 69%
09:00 +30°C° 0.3 mm 1 mps 655 mmHg 65%
10:00 +31°C° 0.3 mm 2 mps 655 mmHg 62%
11:00 +32°C° 0.3 mm 2 mps 655 mmHg 59%
12:00 +32°C° 0.1 mm 2 mps 655 mmHg 57%
13:00 +34°C° 0.1 mm 3 mps 654 mmHg 56%
14:00 +34°C° 0.1 mm 3 mps 654 mmHg 54%
15:00 +34°C° 0.2 mm 2 mps 653 mmHg 55%
16:00 +34°C° 0.2 mm 2 mps 653 mmHg 56%
17:00 +34°C° 0.2 mm 2 mps 652 mmHg 58%
18:00 +32°C° 0.6 mm 2 mps 653 mmHg 62%
19:00 +31°C° 0.6 mm 2 mps 653 mmHg 67%
20:00 +30°C° 0.6 mm 1 mps 653 mmHg 72%
21:00 +30°C° 2.4 mm 1 mps 653 mmHg 73%
22:00 +29°C° 2.4 mm 1 mps 653 mmHg 74%
23:00 +29°C° 2.4 mm 1 mps 653 mmHg 75%

Day after tomorrow, 9 August, Sunday

Time Temperature Precipitation Wind Pressure Humidity
00:00 +29°C° 1.4 mm 1 mps 653 mmHg 76%
01:00 +28°C° 1.4 mm 1 mps 652 mmHg 78%
02:00 +28°C° 1.4 mm 1 mps 652 mmHg 79%
03:00 +28°C° 0.3 mm 1 mps 652 mmHg 79%
04:00 +28°C° 0.3 mm 1 mps 652 mmHg 78%
05:00 +27°C° 0.3 mm 1 mps 652 mmHg 78%
06:00 +28°C° 0.4 mm 1 mps 652 mmHg 77%
07:00 +28°C° 0.4 mm 1 mps 653 mmHg 75%
08:00 +28°C° 0.4 mm 1 mps 653 mmHg 74%
09:00 +29°C° 0.9 mm 2 mps 653 mmHg 72%
10:00 +30°C° 0.9 mm 2 mps 653 mmHg 69%
11:00 +30°C° 0.9 mm 3 mps 653 mmHg 67%
12:00 +31°C° 0.9 mm 3 mps 652 mmHg 65%
13:00 +31°C° 0.9 mm 3 mps 652 mmHg 63%
14:00 +33°C° 0.9 mm 3 mps 652 mmHg 61%
15:00 +32°C° 0.8 mm 2 mps 652 mmHg 61%
16:00 +32°C° 0.8 mm 2 mps 652 mmHg 62%
17:00 +31°C° 0.8 mm 2 mps 651 mmHg 62%
18:00 +31°C° 1 mm 1 mps 651 mmHg 67%
19:00 +30°C° 1 mm 1 mps 652 mmHg 71%
20:00 +29°C° 1 mm 1 mps 652 mmHg 76%
21:00 +29°C° 0.5 mm 1 mps 652 mmHg 76%
22:00 +28°C° 0.5 mm 1 mps 652 mmHg 77%
23:00 +28°C° 0.5 mm 1 mps 652 mmHg 77%

10 August, Monday

Time Temperature Precipitation Wind Pressure Humidity
00:00 +28°C° 0.5 mm 1 mps 652 mmHg 77%
01:00 +27°C° 0.5 mm 1 mps 652 mmHg 76%
02:00 +27°C° 0.5 mm 1 mps 652 mmHg 76%
03:00 +27°C° 0.1 mm 1 mps 652 mmHg 76%
04:00 +27°C° 0.1 mm 1 mps 652 mmHg 75%
05:00 +26°C° 0.1 mm 1 mps 652 mmHg 75%
06:00 +27°C° 0 mm 1 mps 652 mmHg 70%
07:00 +28°C° 0 mm 1 mps 652 mmHg 65%
08:00 +29°C° 0 mm 1 mps 653 mmHg 60%
09:00 +30°C° 0.1 mm 1 mps 653 mmHg 58%
10:00 +31°C° 0.1 mm 2 mps 653 mmHg 56%
11:00 +32°C° 0.1 mm 2 mps 653 mmHg 54%
12:00 +34°C° 0.1 mm 2 mps 653 mmHg 52%
13:00 +34°C° 0.1 mm 3 mps 653 mmHg 51%
14:00 +35°C° 0.1 mm 3 mps 653 mmHg 49%
15:00 +35°C° 0.5 mm 3 mps 652 mmHg 51%
16:00 +34°C° 0.5 mm 3 mps 652 mmHg 53%
17:00 +34°C° 0.5 mm 2 mps 652 mmHg 56%
18:00 +32°C° 0.8 mm 2 mps 652 mmHg 61%
19:00 +31°C° 0.8 mm 1 mps 652 mmHg 67%
20:00 +29°C° 0.8 mm 1 mps 652 mmHg 73%
21:00 +29°C° 0.4 mm 1 mps 653 mmHg 74%
22:00 +29°C° 0.4 mm 1 mps 653 mmHg 75%
23:00 +28°C° 0.4 mm 1 mps 653 mmHg 76%

11 August, Tuesday

Time Temperature Precipitation Wind Pressure Humidity
00:00 +28°C° 0.1 mm 1 mps 653 mmHg 76%
01:00 +28°C° 0.1 mm 1 mps 653 mmHg 77%
02:00 +27°C° 0.1 mm 1 mps 652 mmHg 77%
03:00 +27°C° 0 mm 1 mps 652 mmHg 76%
04:00 +27°C° 0 mm 1 mps 652 mmHg 75%
05:00 +27°C° 0 mm 1 mps 652 mmHg 74%
06:00 +27°C° 0 mm 1 mps 653 mmHg 70%
07:00 +28°C° 0 mm 1 mps 653 mmHg 66%
08:00 +29°C° 0 mm 1 mps 653 mmHg 62%
09:00 +30°C° 0 mm 1 mps 653 mmHg 60%
10:00 +31°C° 0 mm 2 mps 654 mmHg 58%
11:00 +32°C° 0 mm 2 mps 654 mmHg 57%
12:00 +33°C° 0.1 mm 3 mps 653 mmHg 55%
13:00 +34°C° 0.1 mm 3 mps 653 mmHg 54%
14:00 +35°C° 0.1 mm 3 mps 653 mmHg 52%
15:00 +34°C° 0.2 mm 3 mps 653 mmHg 54%
16:00 +34°C° 0.2 mm 3 mps 652 mmHg 56%
17:00 +34°C° 0.2 mm 2 mps 652 mmHg 57%
18:00 +32°C° 0.6 mm 2 mps 652 mmHg 63%
19:00 +31°C° 0.6 mm 1 mps 653 mmHg 69%
20:00 +30°C° 0.6 mm 1 mps 653 mmHg 74%
21:00 +29°C° 0.3 mm 1 mps 653 mmHg 75%
22:00 +29°C° 0.3 mm 1 mps 653 mmHg 76%
23:00 +29°C° 0.3 mm 1 mps 654 mmHg 77%

12 August, Wednesday

Time Temperature Precipitation Wind Pressure Humidity
00:00 +28°C° 0.3 mm 1 mps 654 mmHg 78%
01:00 +28°C° 0.3 mm 1 mps 653 mmHg 79%
02:00 +27°C° 0.3 mm 1 mps 653 mmHg 79%
03:00 +27°C° 0 mm 1 mps 653 mmHg 79%
04:00 +27°C° 0 mm 1 mps 653 mmHg 78%
05:00 +24°C° 0 mm 0 mps 653 mmHg 78%
06:00 +27°C° 0 mm 1 mps 653 mmHg 72%
07:00 +28°C° 0 mm 1 mps 653 mmHg 67%
08:00 +29°C° 0 mm 1 mps 654 mmHg 62%
09:00 +30°C° 0 mm 1 mps 654 mmHg 60%
10:00 +31°C° 0 mm 2 mps 654 mmHg 58%
11:00 +32°C° 0 mm 2 mps 654 mmHg 56%
12:00 +34°C° 0 mm 2 mps 654 mmHg 53%
13:00 +35°C° 0 mm 3 mps 654 mmHg 50%
14:00 +35°C° 0 mm 3 mps 653 mmHg 46%
15:00 +35°C° 0 mm 3 mps 653 mmHg 48%
16:00 +35°C° 0 mm 3 mps 653 mmHg 49%
17:00 +35°C° 0 mm 3 mps 653 mmHg 50%
18:00 +34°C° 0.1 mm 2 mps 653 mmHg 57%
19:00 +31°C° 0.1 mm 2 mps 653 mmHg 64%
20:00 +30°C° 0.1 mm 1 mps 653 mmHg 71%
21:00 +30°C° 0.2 mm 1 mps 654 mmHg 73%
22:00 +29°C° 0.2 mm 1 mps 654 mmHg 74%
23:00 +27°C° 0.2 mm 0 mps 654 mmHg 76%
Show more